{"data":{"norad_id":29506,"intl_designator":"2006-046B","name":"SHIJIAN-6 02B (SJ-6 02B)","alt_names":[],"object_type":"PAYLOAD","status":"ACTIVE","operator":null,"country":"PRC","launch_date":"2006-10-23","launch_site_code":"TAISC","launch_vehicle":null,"mission":null,"orbit_class":"UNKNOWN","rcs_meters":2.4781,"size_class":null,"mass_kg":null,"dimensions":null,"purposes":["science"],"wikipedia_slug":null,"has_3d_model":false,"image_url":null,"decayed_at":null,"tle_current":{"epoch":"2026-05-25T03:39:48.337056Z","epoch_age_seconds":59083,"freshness":"FRESH","line1":"1 29506U 06046B   26145.15264279  .00001226  00000+0  99853-4 0  9990","line2":"2 29506  97.7165 174.3539 0012932 130.9713 229.2632 15.01303703 67284","mean_motion":15.01303703,"eccentricity":0.0012932,"inclination_deg":97.7165,"raan_deg":174.3539,"arg_perigee_deg":130.9713,"mean_anomaly_deg":229.2632,"bstar":9.9853e-5,"rev_number":6728,"period_min":95.916635463065,"perigee_km":553.8990251713,"apogee_km":571.85125897556,"semimajor_km":6941.0121420734,"source":"CELESTRAK","updated_at":"2026-05-25T13:38:24.639341Z"}}}